Weather History for Sisseton, SD

Change the Weather History Date:

Monday, April 29, 2013

  Actual Average Record
Temperature  
Mean Temperature 52 °F 51 °F  
Max Temperature 70 °F 64 °F 96 °F (1934)
Min Temperature 33 °F 38 °F 16 °F (1958)
Degree Days  
Heating Degree Days 13 14  
Month to date heating degree days 917 603  
Since 1 July heating degree days 8745 7945  
Cooling Degree Days 0 0  
Month to date cooling degree days 0 0  
Year to date cooling degree days 0 0  
Growing Degree Days 2 (Base 50)    
Moisture  
Dew Point 38 °F    
Average Humidity 61    
Maximum Humidity 89    
Minimum Humidity 32    
Precipitation  
Precipitation 0.00 in 0.15 in 1.30 in (2009)
Month to date precipitation 2.27 2.14  
Year to date precipitation 5.62 4.12  
Snow  
Snow 0.00 in - - ()
Month to date snowfall 20.2  
Since 1 July snowfall 62.3  
Snow Depth 0.00 in    
Sea Level Pressure  
Sea Level Pressure 29.69 in    
Wind  
Wind Speed 10 mph (South)    
Max Wind Speed 20 mph    
Max Gust Speed 25 mph    
T = Trace of Precipitation, MM = Missing Value Source: NWS Daily Summary

Daily Weather History Graph

Daily Weather History Graph

Search for Another Location

Airport:

Trip Planner

Search our weather history database for the weather conditions in past years. The results will help you decide how hot, cold, wet, or windy it might be!

Date:

Astronomy

Apr. 29, 2013 Rise Set
Actual Time 6:18 AM CDT 8:33 PM CDT
Civil Twilight 5:45 AM CDT 9:05 PM CDT
Nautical Twilight 5:05 AM CDT 9:46 PM CDT
Astronomical Twilight 4:20 AM CDT 10:32 PM CDT
Moon 12:08 AM CDT (4/29) 9:35 AM CDT (4/29)
Length of Visible Light 15h 20m
Length of Day
14h 14m
Waning Gibbous, 80% of the Moon is Illuminated
Apr 29
Waning Gibbous
May 2
Last Quarter
May 9
New
May 17
First Quarter
May 24
Full

Hourly Weather History & Observations

Time (CDT) Temp. Windchill Dew Point Humidity Pressure Visibility Wind Dir Wind Speed Gust Speed Precip Events Conditions
12:56 AM 41.0 °F 35.8 °F 36.0 °F 82% 29.88 in - North 8.1 mph - N/A   Unknown
1:56 AM 39.0 °F 32.8 °F 35.1 °F 86% 29.88 in - NNW 9.2 mph - N/A   Unknown
2:56 AM 37.0 °F 30.4 °F 33.1 °F 86% 29.88 in - North 9.2 mph - N/A   Unknown
3:56 AM 36.0 °F 29.6 °F 32.0 °F 86% 29.89 in - North 8.1 mph - N/A   Unknown
4:56 AM 35.1 °F 30.1 °F 30.9 °F 85% 29.89 in - NW 5.8 mph - N/A   Unknown
5:56 AM 36.0 °F 33.3 °F 30.0 °F 79% 29.89 in - NW 3.5 mph - N/A   Unknown
6:56 AM 35.1 °F - 30.0 °F 82% 29.88 in - Calm Calm - N/A   Unknown
7:56 AM 39.0 °F - 36.0 °F 89% 29.87 in - Calm Calm - N/A   Unknown
8:56 AM 45.0 °F 41.2 °F 35.1 °F 68% 29.84 in - SSE 6.9 mph - N/A   Unknown
9:56 AM 48.9 °F - 36.0 °F 61% 29.81 in - SSE 11.5 mph - N/A   Unknown
10:56 AM 52.0 °F - 37.0 °F 57% 29.77 in - South 12.7 mph - N/A   Unknown
11:56 AM 57.0 °F - 36.0 °F 45% 29.75 in - South 12.7 mph - N/A   Unknown
12:56 PM 60.1 °F - 36.0 °F 41% 29.71 in - SSE 13.8 mph - N/A   Unknown
1:56 PM 64.0 °F - 39.0 °F 40% 29.66 in - South 15.0 mph 19.6 mph N/A   Unknown
2:56 PM 66.0 °F - 37.9 °F 36% 29.62 in - SSE 16.1 mph 21.9 mph N/A   Unknown
3:56 PM 68.0 °F - 37.0 °F 32% 29.59 in - South 18.4 mph 23.0 mph N/A   Unknown
4:56 PM 68.0 °F - 37.0 °F 32% 29.56 in - South 12.7 mph 23.0 mph N/A   Unknown
5:56 PM 68.0 °F - 39.9 °F 36% 29.52 in - South 12.7 mph - N/A   Unknown
6:56 PM 64.9 °F - 44.1 °F 47% 29.50 in - SSE 13.8 mph - N/A   Unknown
7:56 PM 62.1 °F - 46.0 °F 56% 29.48 in - SSE 11.5 mph - N/A   Unknown
8:56 PM 57.9 °F - 46.0 °F 65% 29.46 in - South 8.1 mph - N/A   Unknown
9:56 PM 55.9 °F - 46.0 °F 69% 29.43 in - South 10.4 mph - N/A   Unknown
10:56 PM 54.0 °F - 46.0 °F 75% 29.41 in - South 8.1 mph - N/A   Unknown
11:56 PM 53.1 °F - 46.9 °F 80% 29.36 in - South 6.9 mph - N/A   Unknown